TimeCDT,TemperatureF,Dew PointF,Humidity,Sea Level PressureIn,VisibilityMPH,Wind Direction,Wind SpeedMPH,Gust SpeedMPH,PrecipitationIn,Events,Conditions,WindDirDegrees,DateUTC
12:15 AM,71.6,68.0,88,29.77,10.0,West,4.6,-,N/A,,Clear,280,2013-06-30 05:15:00
12:35 AM,71.6,68.0,88,29.77,10.0,West,3.5,-,N/A,,Clear,280,2013-06-30 05:35:00
12:55 AM,71.6,66.2,83,29.77,10.0,West,3.5,-,N/A,,Clear,280,2013-06-30 05:55:00
1:15 AM,71.6,66.2,83,29.76,10.0,Calm,Calm,-,N/A,,Clear,0,2013-06-30 06:15:00
1:35 AM,71.6,66.2,83,29.76,10.0,WNW,3.5,-,N/A,,Clear,290,2013-06-30 06:35:00
1:55 AM,71.6,66.2,83,29.76,10.0,West,4.6,-,N/A,,Clear,280,2013-06-30 06:55:00
2:15 AM,71.6,66.2,83,29.75,10.0,Calm,Calm,-,N/A,,Clear,0,2013-06-30 07:15:00
2:35 AM,69.8,66.2,88,29.75,10.0,Calm,Calm,-,N/A,,Clear,0,2013-06-30 07:35:00
2:55 AM,69.8,66.2,88,29.74,10.0,Calm,Calm,-,N/A,,Clear,0,2013-06-30 07:55:00
3:15 AM,68.0,64.4,88,29.74,7.0,Calm,Calm,-,N/A,,Clear,0,2013-06-30 08:15:00
3:35 AM,66.2,64.4,94,29.74,9.0,West,3.5,-,N/A,,Clear,270,2013-06-30 08:35:00
3:55 AM,68.0,64.4,88,29.74,8.0,Calm,Calm,-,N/A,,Clear,0,2013-06-30 08:55:00
4:15 AM,68.0,64.4,88,29.74,10.0,West,4.6,-,N/A,,Clear,280,2013-06-30 09:15:00
4:35 AM,68.0,64.4,88,29.74,10.0,Calm,Calm,-,N/A,,Clear,0,2013-06-30 09:35:00
4:55 AM,66.2,62.6,88,29.75,10.0,Calm,Calm,-,N/A,,Clear,0,2013-06-30 09:55:00
5:15 AM,66.2,64.4,94,29.75,8.0,Calm,Calm,-,N/A,,Clear,0,2013-06-30 10:15:00
5:35 AM,66.2,64.4,94,29.76,8.0,Calm,Calm,-,N/A,,Clear,0,2013-06-30 10:35:00
5:55 AM,66.2,62.6,88,29.76,7.0,Calm,Calm,-,N/A,,Clear,0,2013-06-30 10:55:00
6:15 AM,66.2,62.6,88,29.76,8.0,Calm,Calm,-,N/A,,Clear,0,2013-06-30 11:15:00
6:35 AM,66.2,64.4,94,29.76,10.0,Calm,Calm,-,N/A,,Clear,0,2013-06-30 11:35:00
6:55 AM,69.8,64.4,83,29.77,10.0,Calm,Calm,-,N/A,,Clear,0,2013-06-30 11:55:00
7:15 AM,71.6,64.4,78,29.77,10.0,WNW,4.6,-,N/A,,Clear,290,2013-06-30 12:15:00
7:35 AM,73.4,64.4,73,29.77,10.0,Calm,Calm,-,N/A,,Clear,0,2013-06-30 12:35:00
7:55 AM,75.2,66.2,73,29.77,10.0,Calm,Calm,-,N/A,,Clear,0,2013-06-30 12:55:00
8:15 AM,77.0,66.2,69,29.78,10.0,Calm,Calm,-,N/A,,Clear,0,2013-06-30 13:15:00
8:35 AM,78.8,66.2,65,29.78,10.0,WNW,3.5,-,N/A,,Clear,300,2013-06-30 13:35:00
8:55 AM,80.6,66.2,61,29.78,10.0,Calm,Calm,-,N/A,,Clear,0,2013-06-30 13:55:00
9:15 AM,80.6,66.2,61,29.78,10.0,Calm,Calm,-,N/A,,Clear,0,2013-06-30 14:15:00
9:35 AM,82.4,66.2,58,29.78,10.0,NW,4.6,-,N/A,,Clear,320,2013-06-30 14:35:00
9:55 AM,84.2,66.2,55,29.79,10.0,NNW,6.9,-,N/A,,Clear,340,2013-06-30 14:55:00
10:15 AM,84.2,64.4,51,29.79,10.0,Calm,Calm,-,N/A,,Clear,0,2013-06-30 15:15:00
10:35 AM,84.2,64.4,51,29.79,10.0,Calm,Calm,-,N/A,,Clear,0,2013-06-30 15:35:00
10:55 AM,84.2,64.4,51,29.79,10.0,Calm,Calm,-,N/A,,Clear,0,2013-06-30 15:55:00
11:15 AM,86.0,64.4,48,29.79,10.0,WSW,8.1,-,N/A,,Clear,250,2013-06-30 16:15:00
11:35 AM,87.8,62.6,43,29.79,10.0,NW,3.5,-,N/A,,Clear,310,2013-06-30 16:35:00
11:55 AM,87.8,62.6,43,29.78,10.0,NNW,4.6,-,N/A,,Clear,330,2013-06-30 16:55:00
12:15 PM,87.8,64.4,46,29.78,10.0,WSW,3.5,-,N/A,,Clear,250,2013-06-30 17:15:00
12:35 PM,89.6,60.8,38,29.77,10.0,WNW,3.5,-,N/A,,Partly Cloudy,290,2013-06-30 17:35:00
12:55 PM,87.8,60.8,40,29.77,10.0,Calm,Calm,-,N/A,,Mostly Cloudy,0,2013-06-30 17:55:00
1:15 PM,86.0,62.6,45,29.77,10.0,Calm,Calm,-,N/A,,Mostly Cloudy,0,2013-06-30 18:15:00
1:35 PM,84.2,66.2,55,29.77,10.0,Calm,Calm,-,N/A,,Mostly Cloudy,0,2013-06-30 18:35:00
1:55 PM,89.6,62.6,40,29.75,10.0,North,3.5,-,N/A,,Partly Cloudy,350,2013-06-30 18:55:00
2:15 PM,89.6,60.8,38,29.75,10.0,ENE,4.6,-,N/A,,Clear,70,2013-06-30 19:15:00
2:35 PM,87.8,62.6,43,29.76,10.0,Calm,Calm,-,N/A,,Scattered Clouds,0,2013-06-30 19:35:00
2:55 PM,86.0,62.6,45,29.75,10.0,East,4.6,-,N/A,,Scattered Clouds,80,2013-06-30 19:55:00
3:15 PM,84.2,62.6,48,29.76,10.0,Calm,Calm,-,N/A,,Mostly Cloudy,0,2013-06-30 20:15:00
3:35 PM,82.4,68.0,62,29.76,10.0,North,12.7,-,N/A,,Overcast,350,2013-06-30 20:35:00
3:55 PM,75.2,66.2,73,29.77,8.0,NNW,9.2,16.1,N/A,,Overcast,340,2013-06-30 20:55:00
4:15 PM,77.0,69.8,78,29.76,10.0,North,6.9,-,N/A,,Mostly Cloudy,360,2013-06-30 21:15:00
4:35 PM,77.0,68.0,74,29.77,10.0,NW,6.9,-,N/A,,Mostly Cloudy,320,2013-06-30 21:35:00
4:55 PM,78.8,68.0,69,29.77,10.0,NNW,6.9,-,N/A,,Mostly Cloudy,340,2013-06-30 21:55:00
5:15 PM,78.8,69.8,74,29.77,10.0,NNW,4.6,-,N/A,,Mostly Cloudy,330,2013-06-30 22:15:00
5:35 PM,78.8,69.8,74,29.77,10.0,North,3.5,-,N/A,,Mostly Cloudy,360,2013-06-30 22:35:00
5:55 PM,77.0,69.8,78,29.77,10.0,Calm,Calm,-,N/A,,Overcast,0,2013-06-30 22:55:00
6:15 PM,77.0,69.8,78,29.77,10.0,Calm,Calm,-,N/A,,Overcast,0,2013-06-30 23:15:00
6:35 PM,78.8,69.8,74,29.77,10.0,Calm,Calm,-,N/A,,Mostly Cloudy,0,2013-06-30 23:35:00
6:55 PM,78.8,69.8,74,29.77,10.0,Calm,Calm,-,N/A,,Scattered Clouds,0,2013-06-30 23:55:00
7:15 PM,78.8,69.8,74,29.77,10.0,Calm,Calm,-,N/A,,Scattered Clouds,0,2013-07-01 00:15:00
7:35 PM,77.0,69.8,78,29.78,10.0,North,3.5,-,N/A,,Mostly Cloudy,350,2013-07-01 00:35:00
7:55 PM,78.8,69.8,74,29.78,10.0,NNW,4.6,-,N/A,,Overcast,340,2013-07-01 00:55:00
8:15 PM,75.2,68.0,78,29.79,10.0,Calm,Calm,-,N/A,,Scattered Clouds,0,2013-07-01 01:15:00
8:35 PM,75.2,68.0,78,29.80,10.0,WNW,4.6,-,N/A,,Mostly Cloudy,300,2013-07-01 01:35:00
8:55 PM,75.2,66.2,73,29.80,10.0,NW,5.8,-,N/A,,Overcast,320,2013-07-01 01:55:00
9:15 PM,75.2,66.2,73,29.81,10.0,NW,5.8,-,N/A,,Scattered Clouds,320,2013-07-01 02:15:00
9:35 PM,75.2,64.4,69,29.81,10.0,NW,5.8,-,N/A,,Clear,320,2013-07-01 02:35:00
9:55 PM,73.4,64.4,73,29.82,10.0,NNW,5.8,-,N/A,,Clear,330,2013-07-01 02:55:00
10:15 PM,73.4,64.4,73,29.82,10.0,NNW,6.9,-,N/A,,Clear,330,2013-07-01 03:15:00
10:35 PM,73.4,62.6,69,29.82,10.0,NNW,6.9,-,N/A,,Clear,330,2013-07-01 03:35:00
10:55 PM,73.4,62.6,69,29.82,10.0,NNW,6.9,-,N/A,,Clear,330,2013-07-01 03:55:00
11:15 PM,73.4,62.6,69,29.82,10.0,NNW,6.9,-,N/A,,Clear,330,2013-07-01 04:15:00
11:35 PM,71.6,62.6,73,29.83,10.0,NNW,5.8,-,N/A,,Clear,330,2013-07-01 04:35:00
11:55 PM,71.6,62.6,73,29.83,10.0,NW,5.8,-,N/A,,Clear,320,2013-07-01 04:55:00